This demonstration page uses our WeatherBlox Daily Observations layout. Learn more.

Left ArrowRight Arrow

Hourly Observations for July 11, 2016

Temp ( °F °C ) Dew Point ( °F °C ) Humidity (%) Winds ( mph kmh ) Pressure ( in mb ) Visibility ( mi km ) Precip ( " mm )
12:53 am 00:53 Clear 64 17.8 61 16.1 90 90 N N/A 30.03 1017 10 16 N/A
1:53 am 01:53 Clear 64 17.8 61 16.1 90 90 N N/A 30.03 1017 10 16 N/A
2:53 am 02:53 Clear 63 17.2 60 15.6 90 90 N N/A 30.03 1017 9 14 N/A
3:53 am 03:53 Clear 62 16.7 59 15 90 90 N N/A 30.04 1017 9 14 N/A
4:53 am 04:53 Clear with Mist and Fog 61 16.1 59 15 93 93 N N/A 30.05 1018 6 10 N/A
5:53 am 05:53 Clear with Mist and Fog 60 15.6 58 14.4 93 93 N N/A 30.06 1018 5 8 N/A
6:53 am 06:53 Sunny with Mist and Fog 61 16.1 59 15 93 93 N N/A 30.06 1018 6 10 N/A
7:53 am 07:53 Sunny 68 20 64 17.8 87 87 N N/A 30.07 1018 8 13 N/A
8:53 am 08:53 Sunny 74 23.3 66 18.9 76 76 N N/A 30.08 1019 9 14 N/A
9:53 am 09:53 Sunny 79 26.1 66 18.9 65 65 N N/A 30.08 1019 10 16 N/A
10:53 am 10:53 Sunny 83 28.3 64 17.8 53 53 VRB 3 6 30.08 1019 10 16 N/A
11:53 am 11:53 Partly Cloudy 84 28.9 64 17.8 51 51 undefined N/A 30.07 1018 10 16 N/A
12:53 pm 12:53 Mostly Sunny 85 29.4 64 17.8 50 50 SSW 6 9 30.07 1018 10 16 N/A
1:53 pm 13:53 Sunny 86 30 62 16.7 45 45 VRB 3 6 30.05 1018 10 16 N/A
2:53 pm 14:53 Partly Cloudy 88 31.1 62 16.7 42 42 ENE 3 6 30.05 1018 10 16 N/A
3:53 pm 15:53 Mostly Sunny 89 31.7 62 16.7 41 41 VRB 3 6 30.04 1017 10 16 N/A
4:53 pm 16:53 Partly Cloudy 88 31.1 62 16.7 42 42 VRB 5 7 30.01 1016 10 16 N/A
5:53 pm 17:53 Sunny 89 31.7 62 16.7 41 41 N N/A 30.00 1016 10 16 N/A
6:53 pm 18:53 Sunny 87 30.6 61 16.1 42 42 N N/A 29.99 1016 10 16 N/A
7:53 pm 19:53 Sunny 85 29.4 62 16.7 46 46 S 3 6 30.00 1016 10 16 N/A
8:53 pm 20:53 Sunny 83 28.3 61 16.1 48 48 S 3 6 29.99 1016 10 16 N/A
9:53 pm 21:53 Clear 75 23.9 64 17.8 69 69 N N/A 30.00 1016 10 16 N/A
10:53 pm 22:53 Clear 72 22.2 64 17.8 76 76 N N/A 30.02 1017 10 16 N/A
11:53 pm 23:53 Clear 73 22.8 64 17.8 74 74 E 3 6 30.00 1016 10 16 N/A

Powered by AerisWeather